,,PA_Meas_PMT16A,,PR_Meas_QMR101_102,,RH_Meas_QMH101,,SR_Meas_QMS101,,TA_Meas_QMH101,,GenWind,,GenWind,
time,status,PA,status,PR,status,RH,status,SR,status,TA,status,DirAvg,status,SpdAvg,
2013-11-09, 00:00:04,VALID,916.482,VALID,0,VALID,97.3663,VALID,0,VALID,19.2543,VALID,48,VALID,0.814453,
2013-11-09, 00:01:04,VALID,916.477,VALID,0,VALID,97.3739,VALID,0,VALID,19.2738,VALID,48,VALID,0.674609,
2013-11-09, 00:02:04,VALID,916.48,VALID,0,VALID,97.3739,VALID,0,VALID,19.2948,VALID,48,VALID,0.536719,
2013-11-09, 00:03:04,VALID,916.506,VALID,0,VALID,97.351,VALID,0,VALID,19.2738,VALID,48,VALID,0.759375,
2013-11-09, 00:04:04,VALID,916.445,VALID,0,VALID,97.3815,VALID,0,VALID,19.2738,VALID,48,VALID,0.127344,
2013-11-09, 00:05:04,VALID,916.448,VALID,0,VALID,97.3663,VALID,0,VALID,19.2738,VALID,48,VALID,0,
2013-11-09, 00:06:04,VALID,916.47,VALID,0,VALID,97.3815,VALID,0,VALID,19.2933,VALID,48,VALID,0,
2013-11-09, 00:07:04,VALID,916.455,VALID,0,VALID,97.3739,VALID,0,VALID,19.3338,VALID,48,VALID,0,
2013-11-09, 00:08:04,VALID,916.472,VALID,0,VALID,97.3663,VALID,0,VALID,19.3128,VALID,48,VALID,0,
2013-11-09, 00:09:04,VALID,916.447,VALID,0,VALID,97.351,VALID,0,VALID,19.3338,VALID,48,VALID,0,
2013-11-09, 00:10:04,VALID,916.445,VALID,0.2,VALID,97.3663,VALID,0,VALID,19.3128,VALID,48,VALID,0,
2013-11-09, 00:11:04,VALID,916.437,VALID,0,VALID,97.3586,VALID,0,VALID,19.3338,VALID,48,VALID,0,
2013-11-09, 00:12:04,VALID,916.414,VALID,0,VALID,97.3586,VALID,0,VALID,19.3143,VALID,48,VALID,0,
2013-11-09, 00:13:04,VALID,916.441,VALID,0,VALID,97.3663,VALID,0,VALID,19.3143,VALID,48,VALID,0,
2013-11-09, 00:14:04,VALID,916.444,VALID,0,VALID,97.3586,VALID,0,VALID,19.2933,VALID,48,VALID,0,
2013-11-09, 00:15:04,VALID,916.435,VALID,0,VALID,97.3815,VALID,0,VALID,19.3143,VALID,48,VALID,0,
2013-11-09, 00:16:04,VALID,916.425,VALID,0,VALID,97.351,VALID,0,VALID,19.2933,VALID,48,VALID,0,
2013-11-09, 00:17:04,VALID,916.405,VALID,0,VALID,97.3891,VALID,0,VALID,19.3338,VALID,48,VALID,0,
2013-11-09, 00:18:04,VALID,916.366,VALID,0,VALID,97.3815,VALID,0,VALID,19.3128,VALID,47,VALID,0,
2013-11-09, 00:19:04,VALID,916.34,VALID,0,VALID,97.3739,VALID,0,VALID,19.3143,VALID,48,VALID,0,
2013-11-09, 00:20:04,VALID,916.315,VALID,0,VALID,97.3815,VALID,0,VALID,19.2933,VALID,48,VALID,0,
2013-11-09, 00:21:04,VALID,916.319,VALID,0,VALID,97.3815,VALID,0,VALID,19.2933,VALID,48,VALID,0,
2013-11-09, 00:22:04,VALID,916.293,VALID,0,VALID,97.3815,VALID,0,VALID,19.3143,VALID,48,VALID,0,
2013-11-09, 00:23:04,VALID,916.262,VALID,0,VALID,97.3815,VALID,0,VALID,19.3143,VALID,48,VALID,0,
2013-11-09, 00:24:04,VALID,916.257,VALID,0,VALID,97.3815,VALID,0,VALID,19.2933,VALID,48,VALID,0,
2013-11-09, 00:25:04,VALID,916.242,VALID,0,VALID,97.3815,VALID,0,VALID,19.3143,VALID,48,VALID,0,
2013-11-09, 00:26:04,VALID,916.211,VALID,0,VALID,97.3815,VALID,0,VALID,19.2948,VALID,48,VALID,0,
2013-11-09, 00:27:04,VALID,916.2,VALID,0,VALID,97.3815,VALID,0,VALID,19.3143,VALID,111,VALID,0,
2013-11-09, 00:28:04,VALID,916.168,VALID,0,VALID,97.3891,VALID,0,VALID,19.2933,VALID,137,VALID,0,
2013-11-09, 00:29:04,VALID,916.171,VALID,0,VALID,97.3968,VALID,0,VALID,19.2933,VALID,137,VALID,0,
2013-11-09, 00:30:04,VALID,916.111,VALID,0,VALID,97.3815,VALID,0,VALID,19.3143,VALID,137,VALID,0,
2013-11-09, 00:31:04,VALID,916.14,VALID,0,VALID,97.3891,VALID,0,VALID,19.2933,VALID,157,VALID,0.79375,
2013-11-09, 00:32:04,VALID,916.091,VALID,0,VALID,97.3739,VALID,0,VALID,19.3128,VALID,146,VALID,0.794141,
2013-11-09, 00:33:04,VALID,916.071,VALID,0,VALID,97.412,VALID,0,VALID,19.3338,VALID,148,VALID,0.950781,
2013-11-09, 00:34:04,VALID,916.089,VALID,0,VALID,97.3815,VALID,0,VALID,19.3143,VALID,142,VALID,1.29375,
2013-11-09, 00:35:04,VALID,916.075,VALID,0,VALID,97.3815,VALID,0,VALID,19.2948,VALID,141,VALID,1.19805,
2013-11-09, 00:36:04,VALID,916.047,VALID,0,VALID,97.4044,VALID,0,VALID,19.2738,VALID,136,VALID,1.04258,
2013-11-09, 00:37:04,VALID,916.051,VALID,0,VALID,97.3968,VALID,0,VALID,19.2948,VALID,136,VALID,1.13594,
2013-11-09, 00:38:04,VALID,916.036,VALID,0,VALID,97.3891,VALID,0,VALID,19.2738,VALID,141,VALID,0.980469,
2013-11-09, 00:39:04,VALID,916.021,VALID,0,VALID,97.3739,VALID,0,VALID,19.3143,VALID,155,VALID,0.809375,
2013-11-09, 00:40:04,VALID,915.999,VALID,0,VALID,97.3891,VALID,0,VALID,19.3143,VALID,147,VALID,0.897656,
2013-11-09, 00:41:04,VALID,915.966,VALID,0,VALID,97.3815,VALID,0,VALID,19.2738,VALID,147,VALID,0.653516,
2013-11-09, 00:42:04,VALID,915.963,VALID,0,VALID,97.3968,VALID,0,VALID,19.2933,VALID,146,VALID,1.0918,
2013-11-09, 00:43:04,VALID,915.956,VALID,0,VALID,97.3815,VALID,0,VALID,19.3143,VALID,147,VALID,0.502344,
2013-11-09, 00:44:04,VALID,915.956,VALID,0,VALID,97.3891,VALID,0,VALID,19.3128,VALID,159,VALID,0.9,
2013-11-09, 00:45:04,VALID,915.932,VALID,0,VALID,97.3891,VALID,0,VALID,19.3128,VALID,140,VALID,0.638672,
2013-11-09, 00:46:04,VALID,915.944,VALID,0,VALID,97.3891,VALID,0,VALID,19.2933,VALID,146,VALID,0.753906,
2013-11-09, 00:47:04,VALID,915.955,VALID,0,VALID,97.3815,VALID,0,VALID,19.2933,VALID,159,VALID,0.68125,
2013-11-09, 00:48:04,VALID,915.919,VALID,0,VALID,97.3891,VALID,0,VALID,19.2738,VALID,159,VALID,0.941406,
2013-11-09, 00:49:04,VALID,915.893,VALID,0,VALID,97.3891,VALID,0,VALID,19.2948,VALID,154,VALID,1.16055,
2013-11-09, 00:50:04,VALID,915.91,VALID,0,VALID,97.3968,VALID,0,VALID,19.3143,VALID,153,VALID,1.07969,
2013-11-09, 00:51:05,VALID,915.894,VALID,0,VALID,97.4044,VALID,0,VALID,19.2948,VALID,155,VALID,1.12422,
2013-11-09, 00:52:05,VALID,915.883,VALID,0,VALID,97.3968,VALID,0,VALID,19.3143,VALID,147,VALID,0.873047,
2013-11-09, 00:53:05,VALID,915.851,VALID,0,VALID,97.4044,VALID,0,VALID,19.2933,VALID,138,VALID,1.01484,
2013-11-09, 00:54:05,VALID,915.858,VALID,0,VALID,97.3968,VALID,0,VALID,19.2948,VALID,167,VALID,1.12461,
2013-11-09, 00:55:05,VALID,915.85,VALID,0,VALID,97.3891,VALID,0,VALID,19.2933,VALID,158,VALID,1.44922,
2013-11-09, 00:56:05,VALID,915.805,VALID,0,VALID,97.3968,VALID,0,VALID,19.2948,VALID,161,VALID,1.1,
2013-11-09, 00:57:05,VALID,915.818,VALID,0,VALID,97.3968,VALID,0,VALID,19.2738,VALID,150,VALID,0.997266,
2013-11-09, 00:58:05,VALID,915.779,VALID,0,VALID,97.3968,VALID,0,VALID,19.3143,VALID,164,VALID,1.00625,
2013-11-09, 00:59:05,VALID,915.757,VALID,0,VALID,97.3968,VALID,0,VALID,19.2933,VALID,150,VALID,1.12383,
2013-11-09, 01:00:05,VALID,915.751,VALID,0,VALID,97.3891,VALID,0,VALID,19.3143,VALID,155,VALID,1.24727,
2013-11-09, 01:01:05,VALID,915.741,VALID,0,VALID,97.412,VALID,0,VALID,19.2948,VALID,156,VALID,0.890625,
2013-11-09, 01:02:05,VALID,915.714,VALID,0,VALID,97.4044,VALID,0,VALID,19.2753,VALID,150,VALID,0.723047,
2013-11-09, 01:03:05,VALID,915.709,VALID,0,VALID,97.4044,VALID,0,VALID,19.2738,VALID,147,VALID,0.939453,
2013-11-09, 01:04:05,VALID,915.706,VALID,0,VALID,97.3968,VALID,0,VALID,19.2738,VALID,148,VALID,0.733203,
2013-11-09, 01:05:05,VALID,915.717,VALID,0,VALID,97.412,VALID,0,VALID,19.2948,VALID,156,VALID,0.544531,
2013-11-09, 01:06:05,VALID,915.66,VALID,0,VALID,97.3968,VALID,0,VALID,19.2753,VALID,144,VALID,0.889063,
2013-11-09, 01:07:05,VALID,915.692,VALID,0,VALID,97.412,VALID,0,VALID,19.2948,VALID,144,VALID,1.13281,
2013-11-09, 01:08:05,VALID,915.692,VALID,0,VALID,97.412,VALID,0,VALID,19.2948,VALID,145,VALID,0.783203,
2013-11-09, 01:09:05,VALID,915.7,VALID,0,VALID,97.4044,VALID,0,VALID,19.2558,VALID,141,VALID,0.766797,
2013-11-09, 01:10:05,VALID,915.666,VALID,0,VALID,97.3968,VALID,0,VALID,19.2558,VALID,139,VALID,1.14961,
2013-11-09, 01:11:05,VALID,915.651,VALID,0,VALID,97.4044,VALID,0,VALID,19.2558,VALID,136,VALID,1.06367,
2013-11-09, 01:12:05,VALID,915.632,VALID,0,VALID,97.3968,VALID,0,VALID,19.2753,VALID,134,VALID,0.898828,
2013-11-09, 01:13:05,VALID,915.613,VALID,0,VALID,97.4196,VALID,0,VALID,19.2543,VALID,143,VALID,1.11875,
2013-11-09, 01:14:05,VALID,915.586,VALID,0,VALID,97.4044,VALID,0,VALID,19.2753,VALID,147,VALID,1.04102,
2013-11-09, 01:15:05,VALID,915.583,VALID,0,VALID,97.412,VALID,0,VALID,19.2558,VALID,141,VALID,1.3043,
2013-11-09, 01:16:05,VALID,915.561,VALID,0,VALID,97.3891,VALID,0,VALID,19.2753,VALID,142,VALID,1.63125,
2013-11-09, 01:17:05,VALID,915.53,VALID,0,VALID,97.412,VALID,0,VALID,19.2948,VALID,145,VALID,1.14023,
2013-11-09, 01:18:05,VALID,915.515,VALID,0,VALID,97.3968,VALID,0,VALID,19.2948,VALID,147,VALID,1.12539,
2013-11-09, 01:19:05,VALID,915.54,VALID,0,VALID,97.3968,VALID,0,VALID,19.2948,VALID,145,VALID,1.02734,
2013-11-09, 01:20:05,VALID,915.502,VALID,0,VALID,97.412,VALID,0,VALID,19.3143,VALID,150,VALID,0.895703,
2013-11-09, 01:21:05,VALID,915.508,VALID,0,VALID,97.3968,VALID,0,VALID,19.2948,VALID,154,VALID,0.778125,
2013-11-09, 01:22:05,VALID,915.499,VALID,0,VALID,97.3968,VALID,0,VALID,19.2738,VALID,145,VALID,0.865234,
2013-11-09, 01:23:05,VALID,915.5,VALID,0,VALID,97.412,VALID,0,VALID,19.2933,VALID,166,VALID,1.00977,
2013-11-09, 01:24:05,VALID,915.5,VALID,0,VALID,97.3891,VALID,0,VALID,19.2933,VALID,153,VALID,0.844922,
2013-11-09, 01:25:05,VALID,915.492,VALID,0,VALID,97.3891,VALID,0,VALID,19.3143,VALID,159,VALID,1.42344,
2013-11-09, 01:26:05,VALID,915.521,VALID,0,VALID,97.3968,VALID,0,VALID,19.3143,VALID,159,VALID,1.49297,
2013-11-09, 01:27:05,VALID,915.503,VALID,0,VALID,97.3891,VALID,0,VALID,19.3143,VALID,169,VALID,0.798437,
2013-11-09, 01:28:05,VALID,915.477,VALID,0,VALID,97.3968,VALID,0,VALID,19.2933,VALID,153,VALID,0.876953,
2013-11-09, 01:29:05,VALID,915.472,VALID,0,VALID,97.4044,VALID,0,VALID,19.2933,VALID,152,VALID,1.04336,
2013-11-09, 01:30:05,VALID,915.45,VALID,0,VALID,97.3968,VALID,0,VALID,19.2738,VALID,147,VALID,1.3457,
2013-11-09, 01:31:05,VALID,915.45,VALID,0,VALID,97.412,VALID,0,VALID,19.2738,VALID,144,VALID,1.21211,
2013-11-09, 01:32:05,VALID,915.412,VALID,0,VALID,97.3891,VALID,0,VALID,19.2948,VALID,145,VALID,1.4,
2013-11-09, 01:33:05,VALID,915.393,VALID,0,VALID,97.3968,VALID,0,VALID,19.3143,VALID,141,VALID,1.22852,
2013-11-09, 01:34:05,VALID,915.358,VALID,0,VALID,97.4044,VALID,0,VALID,19.2948,VALID,138,VALID,1.08789,
2013-11-09, 01:35:05,VALID,915.371,VALID,0,VALID,97.412,VALID,0,VALID,19.2948,VALID,125,VALID,0.857813,
2013-11-09, 01:36:05,VALID,915.349,VALID,0,VALID,97.4273,VALID,0,VALID,19.2753,VALID,143,VALID,0.811719,
2013-11-09, 01:37:05,VALID,915.358,VALID,0,VALID,97.4044,VALID,0,VALID,19.2543,VALID,145,VALID,1.23555,
2013-11-09, 01:38:05,VALID,915.309,VALID,0,VALID,97.412,VALID,0,VALID,19.2334,VALID,142,VALID,0.918359,
2013-11-09, 01:39:05,VALID,915.328,VALID,0,VALID,97.4196,VALID,0,VALID,19.2348,VALID,142,VALID,1.00586,
2013-11-09, 01:40:05,VALID,915.313,VALID,0,VALID,97.4196,VALID,0,VALID,19.2348,VALID,141,VALID,1.03477,
2013-11-09, 01:41:05,VALID,915.324,VALID,0,VALID,97.4044,VALID,0,VALID,19.2153,VALID,142,VALID,0.944141,
2013-11-09, 01:42:05,VALID,915.287,VALID,0,VALID,97.4196,VALID,0,VALID,19.2753,VALID,139,VALID,0.685938,
2013-11-09, 01:43:05,VALID,915.27,VALID,0,VALID,97.4196,VALID,0,VALID,19.2558,VALID,148,VALID,0.484766,
2013-11-09, 01:44:05,VALID,915.266,VALID,0,VALID,97.412,VALID,0,VALID,19.2558,VALID,158,VALID,0.490625,
2013-11-09, 01:45:05,VALID,915.272,VALID,0,VALID,97.3891,VALID,0,VALID,19.2558,VALID,158,VALID,0.802344,
2013-11-09, 01:46:05,VALID,915.284,VALID,0,VALID,97.4273,VALID,0,VALID,19.2348,VALID,158,VALID,0.861719,
2013-11-09, 01:47:05,VALID,915.268,VALID,0,VALID,97.4196,VALID,0,VALID,19.2558,VALID,158,VALID,0.339453,
2013-11-09, 01:48:05,VALID,915.279,VALID,0,VALID,97.4273,VALID,0,VALID,19.2348,VALID,169,VALID,0.262109,
2013-11-09, 01:49:05,VALID,915.292,VALID,0,VALID,97.4349,VALID,0,VALID,19.2558,VALID,168,VALID,0,
2013-11-09, 01:50:05,VALID,915.257,VALID,0,VALID,97.4273,VALID,0,VALID,19.2543,VALID,156,VALID,0,
2013-11-09, 01:51:05,VALID,915.249,VALID,0,VALID,97.4349,VALID,0,VALID,19.2543,VALID,158,VALID,0,
2013-11-09, 01:52:05,VALID,915.242,VALID,0,VALID,97.4196,VALID,0,VALID,19.2558,VALID,158,VALID,0,
2013-11-09, 01:53:05,VALID,915.253,VALID,0,VALID,97.4273,VALID,0,VALID,19.2558,VALID,159,VALID,0,
2013-11-09, 01:54:05,VALID,915.224,VALID,0.2,VALID,97.4349,VALID,0,VALID,19.2558,VALID,159,VALID,0,
2013-11-09, 01:55:05,VALID,915.194,VALID,0,VALID,97.4044,VALID,0,VALID,19.2558,VALID,159,VALID,0,
2013-11-09, 01:56:05,VALID,915.199,VALID,0,VALID,97.4196,VALID,0,VALID,19.2348,VALID,179,VALID,0,
2013-11-09, 01:57:05,VALID,915.187,VALID,0,VALID,97.412,VALID,0,VALID,19.2558,VALID,178,VALID,0,
2013-11-09, 01:58:05,VALID,915.195,VALID,0,VALID,97.4196,VALID,0,VALID,19.2348,VALID,178,VALID,0,
2013-11-09, 01:59:05,VALID,915.166,VALID,0,VALID,97.412,VALID,0,VALID,19.2558,VALID,178,VALID,0,
2013-11-09, 02:00:05,VALID,915.137,VALID,0,VALID,97.4196,VALID,0,VALID,19.2558,VALID,174,VALID,0,
2013-11-09, 02:01:05,VALID,915.109,VALID,0,VALID,97.4196,VALID,0,VALID,19.2348,VALID,173,VALID,0,
2013-11-09, 02:02:05,VALID,915.129,VALID,0,VALID,97.4349,VALID,0,VALID,19.2543,VALID,173,VALID,0,
2013-11-09, 02:03:05,VALID,915.121,VALID,0,VALID,97.4273,VALID,0,VALID,19.2348,VALID,173,VALID,0,
2013-11-09, 02:04:05,VALID,915.073,VALID,0,VALID,97.4425,VALID,0,VALID,19.2363,VALID,173,VALID,0,
2013-11-09, 02:05:05,VALID,915.069,VALID,0,VALID,97.4349,VALID,0,VALID,19.2348,VALID,173,VALID,0,
2013-11-09, 02:06:05,VALID,915.07,VALID,0,VALID,97.4273,VALID,0,VALID,19.2363,VALID,173,VALID,0,
2013-11-09, 02:07:05,VALID,915.055,VALID,0,VALID,97.4273,VALID,0,VALID,19.2153,VALID,173,VALID,0,
2013-11-09, 02:08:05,VALID,915.04,VALID,0,VALID,97.4273,VALID,0,VALID,19.1749,VALID,173,VALID,0,
2013-11-09, 02:09:05,VALID,915.08,VALID,0,VALID,97.412,VALID,0,VALID,19.1958,VALID,173,VALID,0,
2013-11-09, 02:10:05,VALID,915.065,VALID,0,VALID,97.4196,VALID,0,VALID,19.2153,VALID,173,VALID,0,
2013-11-09, 02:11:05,VALID,915.063,VALID,0,VALID,97.4349,VALID,0,VALID,19.1973,VALID,173,VALID,0,
2013-11-09, 02:12:05,VALID,915.06,VALID,0,VALID,97.4349,VALID,0,VALID,19.1373,VALID,167,VALID,0,
2013-11-09, 02:13:05,VALID,915.062,VALID,0,VALID,97.4425,VALID,0,VALID,19.0969,VALID,106,VALID,0,
2013-11-09, 02:14:05,VALID,915.085,VALID,0,VALID,97.4425,VALID,0,VALID,19.0579,VALID,106,VALID,0,
2013-11-09, 02:15:05,VALID,915.076,VALID,0,VALID,97.4425,VALID,0,VALID,19.0593,VALID,107,VALID,0,
2013-11-09, 02:16:05,VALID,915.098,VALID,0,VALID,97.4577,VALID,0,VALID,19.1027,VALID,107,VALID,0,
2013-11-09, 02:17:05,VALID,915.075,VALID,0,VALID,97.4273,VALID,0,VALID,19.0203,VALID,107,VALID,0,
2013-11-09, 02:18:05,VALID,915.091,VALID,0,VALID,97.4577,VALID,0,VALID,19.0203,VALID,107,VALID,0,
2013-11-09, 02:19:05,VALID,915.105,VALID,0,VALID,97.4349,VALID,0,VALID,19.0413,VALID,107,VALID,0,
2013-11-09, 02:20:05,VALID,915.091,VALID,0,VALID,97.4577,VALID,0,VALID,19.0413,VALID,107,VALID,0,
2013-11-09, 02:21:05,VALID,915.122,VALID,0,VALID,97.4425,VALID,0,VALID,19.0203,VALID,107,VALID,0,
2013-11-09, 02:22:05,VALID,915.124,VALID,0,VALID,97.4425,VALID,0,VALID,19.0413,VALID,107,VALID,0,
2013-11-09, 02:23:05,VALID,915.127,VALID,0,VALID,97.4577,VALID,0,VALID,19.0413,VALID,107,VALID,0,
2013-11-09, 02:24:05,VALID,915.128,VALID,0,VALID,97.4577,VALID,0,VALID,19.0413,VALID,107,VALID,0,
2013-11-09, 02:25:05,VALID,915.117,VALID,0,VALID,97.4577,VALID,0,VALID,19.0008,VALID,107,VALID,0,
2013-11-09, 02:26:05,VALID,915.095,VALID,0,VALID,97.4654,VALID,0,VALID,19.0232,VALID,107,VALID,0,
2013-11-09, 02:27:05,VALID,915.097,VALID,0,VALID,97.4654,VALID,0,VALID,18.9619,VALID,107,VALID,0,
2013-11-09, 02:28:05,VALID,915.101,VALID,0,VALID,97.4577,VALID,0,VALID,18.9438,VALID,107,VALID,0,
2013-11-09, 02:29:05,VALID,915.114,VALID,0,VALID,97.4577,VALID,0,VALID,18.9438,VALID,107,VALID,0,
2013-11-09, 02:30:05,VALID,915.093,VALID,0,VALID,97.4654,VALID,0,VALID,18.9438,VALID,107,VALID,0,
2013-11-09, 02:31:05,VALID,915.078,VALID,0,VALID,97.473,VALID,0,VALID,18.9229,VALID,107,VALID,0,
2013-11-09, 02:32:05,VALID,915.064,VALID,0,VALID,97.4654,VALID,0,VALID,18.9243,VALID,107,VALID,0,
2013-11-09, 02:33:05,VALID,915.091,VALID,0,VALID,97.473,VALID,0,VALID,18.9243,VALID,107,VALID,0,
2013-11-09, 02:34:05,VALID,915.084,VALID,0,VALID,97.4577,VALID,0,VALID,18.9452,VALID,107,VALID,0,
2013-11-09, 02:35:05,VALID,915.089,VALID,0,VALID,97.4577,VALID,0,VALID,18.8839,VALID,107,VALID,0,
2013-11-09, 02:36:05,VALID,915.078,VALID,0,VALID,97.4806,VALID,0,VALID,18.9048,VALID,107,VALID,0,
2013-11-09, 02:37:05,VALID,915.051,VALID,0,VALID,97.4654,VALID,0,VALID,18.9243,VALID,107,VALID,0,
2013-11-09, 02:38:05,VALID,915.058,VALID,0,VALID,97.4806,VALID,0,VALID,18.9243,VALID,107,VALID,0,
2013-11-09, 02:39:05,VALID,915.067,VALID,0,VALID,97.4959,VALID,0,VALID,18.9243,VALID,107,VALID,0,
2013-11-09, 02:40:05,VALID,915.051,VALID,0,VALID,97.4806,VALID,0,VALID,18.9243,VALID,107,VALID,0,
2013-11-09, 02:41:05,VALID,915.022,VALID,0,VALID,97.4882,VALID,0,VALID,18.9034,VALID,107,VALID,0,
2013-11-09, 02:42:05,VALID,915.049,VALID,0,VALID,97.4806,VALID,0,VALID,18.8853,VALID,107,VALID,0,
2013-11-09, 02:43:05,VALID,915.032,VALID,0,VALID,97.4806,VALID,0,VALID,18.9257,VALID,107,VALID,0,
2013-11-09, 02:44:05,VALID,915.003,VALID,0,VALID,97.473,VALID,0,VALID,18.9048,VALID,107,VALID,0,
2013-11-09, 02:45:05,VALID,914.995,VALID,0,VALID,97.4882,VALID,0,VALID,18.8644,VALID,107,VALID,0,
2013-11-09, 02:46:05,VALID,914.984,VALID,0,VALID,97.4882,VALID,0,VALID,18.8867,VALID,107,VALID,0,
2013-11-09, 02:47:05,VALID,914.953,VALID,0,VALID,97.4882,VALID,0,VALID,18.8658,VALID,107,VALID,0,
2013-11-09, 02:48:05,VALID,914.942,VALID,0,VALID,97.473,VALID,0,VALID,18.8658,VALID,107,VALID,0,
2013-11-09, 02:49:05,VALID,914.918,VALID,0,VALID,97.4882,VALID,0,VALID,18.8853,VALID,107,VALID,0,
2013-11-09, 02:50:05,VALID,914.917,VALID,0,VALID,97.4806,VALID,0,VALID,18.8853,VALID,107,VALID,0,
2013-11-09, 02:51:05,VALID,914.91,VALID,0,VALID,97.473,VALID,0,VALID,18.8853,VALID,107,VALID,0,
2013-11-09, 02:52:05,VALID,914.913,VALID,0,VALID,97.473,VALID,0,VALID,18.8658,VALID,107,VALID,0,
2013-11-09, 02:53:05,VALID,914.89,VALID,0,VALID,97.4882,VALID,0,VALID,18.8254,VALID,107,VALID,0,
2013-11-09, 02:54:05,VALID,914.893,VALID,0,VALID,97.5035,VALID,0,VALID,18.8463,VALID,107,VALID,0,
2013-11-09, 02:55:05,VALID,914.903,VALID,0,VALID,97.5035,VALID,0,VALID,18.8059,VALID,107,VALID,0,
2013-11-09, 02:56:05,VALID,914.891,VALID,0,VALID,97.5111,VALID,0,VALID,18.8268,VALID,107,VALID,0,
2013-11-09, 02:57:05,VALID,914.895,VALID,0,VALID,97.4806,VALID,0,VALID,18.8073,VALID,107,VALID,0,
2013-11-09, 02:58:05,VALID,914.874,VALID,0,VALID,97.5111,VALID,0,VALID,18.8059,VALID,107,VALID,0,
2013-11-09, 02:59:05,VALID,914.88,VALID,0,VALID,97.5035,VALID,0,VALID,18.8073,VALID,110,VALID,0,
2013-11-09, 03:00:05,VALID,914.904,VALID,0,VALID,97.5035,VALID,0,VALID,18.7878,VALID,115,VALID,0,
2013-11-09, 03:01:05,VALID,914.901,VALID,0,VALID,97.4806,VALID,0,VALID,18.7683,VALID,116,VALID,0,
2013-11-09, 03:02:05,VALID,914.866,VALID,0,VALID,97.5035,VALID,0,VALID,18.7683,VALID,116,VALID,0,
2013-11-09, 03:03:05,VALID,914.893,VALID,0,VALID,97.5035,VALID,0,VALID,18.7488,VALID,116,VALID,0,
2013-11-09, 03:04:05,VALID,914.91,VALID,0,VALID,97.5035,VALID,0,VALID,18.7488,VALID,116,VALID,0,
2013-11-09, 03:05:05,VALID,914.914,VALID,0,VALID,97.5187,VALID,0,VALID,18.7113,VALID,116,VALID,0,
2013-11-09, 03:06:05,VALID,914.891,VALID,0,VALID,97.5264,VALID,0,VALID,18.7098,VALID,115,VALID,0,
2013-11-09, 03:07:05,VALID,914.874,VALID,0,VALID,97.5035,VALID,0,VALID,18.7488,VALID,116,VALID,0,
2013-11-09, 03:08:05,VALID,914.888,VALID,0,VALID,97.4959,VALID,0,VALID,18.7683,VALID,116,VALID,0,
2013-11-09, 03:09:05,VALID,914.885,VALID,0,VALID,97.5035,VALID,0,VALID,18.7488,VALID,116,VALID,0,
2013-11-09, 03:10:05,VALID,914.894,VALID,0,VALID,97.534,VALID,0,VALID,18.7293,VALID,108,VALID,0,
2013-11-09, 03:11:05,VALID,914.869,VALID,0,VALID,97.534,VALID,0,VALID,18.7098,VALID,108,VALID,0,
2013-11-09, 03:12:05,VALID,914.876,VALID,0,VALID,97.5111,VALID,0,VALID,18.6889,VALID,107,VALID,0,
2013-11-09, 03:13:05,VALID,914.871,VALID,0,VALID,97.5187,VALID,0,VALID,18.6889,VALID,107,VALID,0,
2013-11-09, 03:14:05,VALID,914.855,VALID,0,VALID,97.5111,VALID,0,VALID,18.6903,VALID,107,VALID,0,
2013-11-09, 03:15:05,VALID,914.851,VALID,0,VALID,97.5264,VALID,0,VALID,18.6513,VALID,107,VALID,0,
2013-11-09, 03:16:05,VALID,914.84,VALID,0,VALID,97.534,VALID,0,VALID,18.6124,VALID,107,VALID,0,
2013-11-09, 03:17:05,VALID,914.844,VALID,0,VALID,97.5416,VALID,0,VALID,18.6319,VALID,107,VALID,0,
2013-11-09, 03:18:05,VALID,914.852,VALID,0,VALID,97.5187,VALID,0,VALID,18.6513,VALID,107,VALID,0,
2013-11-09, 03:19:05,VALID,914.838,VALID,0,VALID,97.5111,VALID,0,VALID,18.6319,VALID,107,VALID,0,
2013-11-09, 03:20:05,VALID,914.87,VALID,0,VALID,97.5187,VALID,0,VALID,18.6513,VALID,107,VALID,0,
2013-11-09, 03:21:05,VALID,914.87,VALID,0,VALID,97.534,VALID,0,VALID,18.6513,VALID,107,VALID,0,
2013-11-09, 03:22:05,VALID,914.869,VALID,0,VALID,97.534,VALID,0,VALID,18.6513,VALID,107,VALID,0,
2013-11-09, 03:23:05,VALID,914.881,VALID,0,VALID,97.5264,VALID,0,VALID,18.6304,VALID,107,VALID,0,
2013-11-09, 03:24:05,VALID,914.892,VALID,0,VALID,97.5264,VALID,0,VALID,18.6319,VALID,107,VALID,0,
2013-11-09, 03:25:05,VALID,914.875,VALID,0,VALID,97.534,VALID,0,VALID,18.6319,VALID,107,VALID,0,
2013-11-09, 03:26:05,VALID,914.893,VALID,0,VALID,97.5492,VALID,0,VALID,18.6319,VALID,107,VALID,0,
2013-11-09, 03:27:05,VALID,914.869,VALID,0,VALID,97.5416,VALID,0,VALID,18.6319,VALID,107,VALID,0,
2013-11-09, 03:28:05,VALID,914.881,VALID,0,VALID,97.5187,VALID,0,VALID,18.6513,VALID,107,VALID,0,
2013-11-09, 03:29:05,VALID,914.883,VALID,0,VALID,97.5187,VALID,0,VALID,18.6513,VALID,107,VALID,0,
2013-11-09, 03:30:05,VALID,914.88,VALID,0,VALID,97.534,VALID,0,VALID,18.6513,VALID,107,VALID,0,
2013-11-09, 03:31:05,VALID,914.871,VALID,0,VALID,97.5264,VALID,0,VALID,18.6499,VALID,107,VALID,0,
2013-11-09, 03:32:05,VALID,914.867,VALID,0,VALID,97.5264,VALID,0,VALID,18.6499,VALID,107,VALID,0,
2013-11-09, 03:33:05,VALID,914.844,VALID,0,VALID,97.5187,VALID,0,VALID,18.6708,VALID,107,VALID,0,
2013-11-09, 03:34:05,VALID,914.85,VALID,0,VALID,97.5416,VALID,0,VALID,18.6513,VALID,109,VALID,0,
2013-11-09, 03:35:04,VALID,914.843,VALID,0,VALID,97.5264,VALID,0,VALID,18.6513,VALID,118,VALID,0,
2013-11-09, 03:36:04,VALID,914.865,VALID,0,VALID,97.5569,VALID,0,VALID,18.6319,VALID,118,VALID,0,
2013-11-09, 03:37:04,VALID,914.85,VALID,0,VALID,97.5492,VALID,0,VALID,18.6124,VALID,118,VALID,0,
2013-11-09, 03:38:04,VALID,914.873,VALID,0,VALID,97.5492,VALID,0.107441,VALID,18.5914,VALID,118,VALID,0,
2013-11-09, 03:39:04,VALID,914.872,VALID,0,VALID,97.5569,VALID,0,VALID,18.5929,VALID,118,VALID,0,
2013-11-09, 03:40:04,VALID,914.885,VALID,0,VALID,97.5569,VALID,0,VALID,18.5929,VALID,118,VALID,0,
2013-11-09, 03:41:04,VALID,914.881,VALID,0,VALID,97.534,VALID,0,VALID,18.5929,VALID,118,VALID,0,
2013-11-09, 03:42:04,VALID,914.869,VALID,0,VALID,97.5492,VALID,0,VALID,18.5525,VALID,118,VALID,0,
2013-11-09, 03:43:04,VALID,914.899,VALID,0,VALID,97.5492,VALID,0,VALID,18.5734,VALID,118,VALID,0,
2013-11-09, 03:44:04,VALID,914.902,VALID,0,VALID,97.5416,VALID,0,VALID,18.5929,VALID,118,VALID,0,
2013-11-09, 03:45:04,VALID,914.905,VALID,0,VALID,97.5492,VALID,0,VALID,18.5734,VALID,118,VALID,0,
2013-11-09, 03:46:04,VALID,914.921,VALID,0,VALID,97.5416,VALID,0,VALID,18.5929,VALID,118,VALID,0,
2013-11-09, 03:47:04,VALID,914.918,VALID,0,VALID,97.5264,VALID,0,VALID,18.5734,VALID,130,VALID,0,
2013-11-09, 03:48:04,VALID,914.897,VALID,0,VALID,97.5492,VALID,0,VALID,18.5734,VALID,130,VALID,0,
2013-11-09, 03:49:04,VALID,914.888,VALID,0,VALID,97.5492,VALID,0,VALID,18.5734,VALID,130,VALID,0,
2013-11-09, 03:50:04,VALID,914.935,VALID,0,VALID,97.5721,VALID,0,VALID,18.5734,VALID,130,VALID,0,
2013-11-09, 03:51:04,VALID,914.909,VALID,0,VALID,97.5645,VALID,0,VALID,18.5539,VALID,130,VALID,0,
2013-11-09, 03:52:04,VALID,914.935,VALID,0,VALID,97.5492,VALID,0,VALID,18.5539,VALID,130,VALID,0,
2013-11-09, 03:53:04,VALID,914.942,VALID,0,VALID,97.5645,VALID,0,VALID,18.5344,VALID,130,VALID,0,
2013-11-09, 03:54:04,VALID,914.95,VALID,0,VALID,97.5569,VALID,0,VALID,18.5344,VALID,130,VALID,0,
2013-11-09, 03:55:04,VALID,914.934,VALID,0,VALID,97.5645,VALID,0,VALID,18.5344,VALID,130,VALID,0,